Weather History for Melfa, VA

Change the Weather History Date:

Thursday, January 16, 2014

  Actual Average (KWAL) Record (KWAL)
Temperature  
Mean Temperature 38 °F 36 °F  
Max Temperature 46 °F 45 °F 67 °F (2007)
Min Temperature 30 °F 28 °F 6 °F (1972)
Degree Days  
Heating Degree Days 27    
Month to date heating degree days  
Since 1 July heating degree days  
Cooling Degree Days 0    
Month to date cooling degree days  
Year to date cooling degree days  
Moisture  
Dew Point 31 °F    
Average Humidity 73    
Maximum Humidity 93    
Minimum Humidity 57    
Precipitation  
Precipitation 0.00 in 0.10 in 0.49 in (1997)
Month to date precipitation 1.59  
Year to date precipitation 1.59  
Sea Level Pressure  
Sea Level Pressure 29.95 in    
Wind  
Wind Speed 10 mph (NW)    
Max Wind Speed 20 mph    
Max Gust Speed 29 mph    
Visibility 10 miles    
Events      
T = Trace of Precipitation, MM = Missing Value Source: NWS Daily Summary

Daily Weather History Graph

Daily Weather History Graph

Search for Another Location

Airport:

Trip Planner

Search our weather history database for the weather conditions in past years. The results will help you decide how hot, cold, wet, or windy it might be!

Date:

Astronomy

Jan. 16, 2014 Rise Set
Actual Time 7:16 AM EST 5:09 PM EST
Civil Twilight 6:48 AM EST 5:37 PM EST
Nautical Twilight 6:15 AM EST 6:10 PM EST
Astronomical Twilight 5:44 AM EST 6:41 PM EST
Moon 5:57 PM EST (1/16) 7:10 AM EST (1/16)
Length of Visible Light 10h 49m
Length of Day
9h 52m
Full, 100% of the Moon is Illuminated
Jan 16
Full
Jan 24
Last Quarter
Jan 30
New
Feb 6
First Quarter
Feb 14
Full

Hourly Weather History & Observations

Time (EST) Temp. Windchill Dew Point Humidity Pressure Visibility Wind Dir Wind Speed Gust Speed Precip Events Conditions
12:15 AM 46.4 °F 41.1 °F 42.8 °F 87% 29.90 in 10.0 mi NNW 11.5 mph 18.4 mph N/A   Overcast
12:35 AM 46.4 °F 40.7 °F 42.8 °F 87% 29.90 in 10.0 mi NNW 12.7 mph 19.6 mph N/A   Overcast
12:55 AM 46.4 °F 41.5 °F 41.0 °F 81% 29.90 in 10.0 mi NNW 10.4 mph 18.4 mph N/A   Overcast
1:15 AM 44.6 °F 37.8 °F 39.2 °F 81% 29.90 in 10.0 mi NNW 15.0 mph 21.9 mph N/A   Overcast
1:35 AM 44.6 °F 37.4 °F 37.4 °F 76% 29.91 in 10.0 mi NNW 16.1 mph 23.0 mph N/A   Overcast
1:55 AM 44.6 °F 39.7 °F 37.4 °F 76% 29.91 in 10.0 mi North 9.2 mph 20.7 mph N/A   Mostly Cloudy
2:16 AM 44.6 °F 39.2 °F 37.4 °F 76% 29.91 in 10.0 mi NNW 10.4 mph 17.3 mph N/A   Scattered Clouds
2:35 AM 44.6 °F 38.8 °F 37.4 °F 76% 29.90 in 10.0 mi NNW 11.5 mph 17.3 mph N/A   Overcast
2:55 AM 44.6 °F 37.8 °F 37.4 °F 76% 29.92 in 10.0 mi NNW 15.0 mph 20.7 mph N/A   Overcast
3:15 AM 44.6 °F 37.8 °F 37.4 °F 76% 29.92 in 10.0 mi NNW 15.0 mph 28.8 mph N/A   Overcast
3:35 AM 42.8 °F 36.2 °F 37.4 °F 81% 29.91 in 10.0 mi NNW 12.7 mph 26.5 mph N/A   Overcast
3:55 AM 42.8 °F 35.8 °F 35.6 °F 76% 29.91 in 10.0 mi North 13.8 mph 20.7 mph N/A   Overcast
4:15 AM 42.8 °F 37.5 °F 35.6 °F 76% 29.91 in 10.0 mi North 9.2 mph 20.7 mph N/A   Overcast
4:35 AM 42.8 °F 37.5 °F 35.6 °F 76% 29.91 in 10.0 mi North 9.2 mph 21.9 mph N/A   Overcast
4:55 AM 42.8 °F 38.6 °F 33.8 °F 70% 29.91 in 10.0 mi North 6.9 mph 16.1 mph N/A   Overcast
5:15 AM 42.8 °F 36.6 °F 33.8 °F 70% 29.90 in 10.0 mi North 11.5 mph 17.3 mph N/A   Overcast
5:35 AM 42.8 °F 36.6 °F 35.6 °F 76% 29.91 in 10.0 mi North 11.5 mph 16.1 mph N/A   Overcast
5:55 AM 42.8 °F 38.0 °F 33.8 °F 70% 29.92 in 10.0 mi NNW 8.1 mph - N/A   Overcast
6:15 AM 42.8 °F 36.2 °F 33.8 °F 70% 29.91 in 10.0 mi NNW 12.7 mph 16.1 mph N/A   Overcast
6:35 AM 42.8 °F 36.6 °F 32.0 °F 66% 29.91 in 10.0 mi North 11.5 mph 17.3 mph N/A   Overcast
6:55 AM 41.0 °F 34.3 °F 30.2 °F 65% 29.92 in 10.0 mi North 11.5 mph 19.6 mph N/A   Overcast
7:15 AM 41.0 °F 33.5 °F 28.4 °F 61% 29.93 in 10.0 mi NNW 13.8 mph 17.3 mph N/A   Overcast
7:36 AM 41.0 °F 33.9 °F 28.4 °F 61% 29.95 in 10.0 mi North 12.7 mph 19.6 mph N/A   Overcast
7:55 AM 41.0 °F 35.2 °F 30.2 °F 65% 29.95 in 10.0 mi NNW 9.2 mph 16.1 mph N/A   Overcast
8:15 AM 41.0 °F 35.2 °F 30.2 °F 65% 29.99 in 10.0 mi NNW 9.2 mph - N/A   Overcast
8:35 AM 41.0 °F 35.2 °F 28.4 °F 61% 30.00 in 10.0 mi NNW 9.2 mph - N/A   Overcast
8:55 AM 41.0 °F 34.7 °F 30.2 °F 65% 29.98 in 10.0 mi NNW 10.4 mph - N/A   Overcast
9:15 AM 41.0 °F 33.9 °F 28.4 °F 61% 29.99 in 10.0 mi NNW 12.7 mph 20.7 mph N/A   Overcast
9:35 AM 41.0 °F 33.9 °F 28.4 °F 61% 29.99 in 10.0 mi NNW 12.7 mph - N/A   Overcast
9:55 AM 42.8 °F 37.0 °F 30.2 °F 61% 29.99 in 10.0 mi NNW 10.4 mph 16.1 mph N/A   Overcast
10:15 AM 42.8 °F 35.4 °F 28.4 °F 57% 29.99 in 10.0 mi NNW 15.0 mph 19.6 mph N/A   Overcast
10:35 AM 42.8 °F 38.0 °F 28.4 °F 57% 29.98 in 10.0 mi NNW 8.1 mph 17.3 mph N/A   Overcast
10:55 AM 42.8 °F 38.0 °F 28.4 °F 57% 29.98 in 10.0 mi NNW 8.1 mph 19.6 mph N/A   Overcast
11:15 AM 42.8 °F 36.6 °F 28.4 °F 57% 29.96 in 10.0 mi NNW 11.5 mph 18.4 mph N/A   Unknown
11:35 AM 42.8 °F 36.6 °F 28.4 °F 57% 29.94 in 10.0 mi NNW 11.5 mph 20.7 mph N/A   Overcast
11:55 AM 42.8 °F 37.0 °F 30.2 °F 61% 29.93 in 10.0 mi NNW 10.4 mph 20.7 mph N/A   Overcast
12:15 PM 41.0 °F 31.9 °F 32.0 °F 70% 29.92 in 10.0 mi NW 19.6 mph 24.2 mph N/A   Overcast
12:35 PM 41.0 °F 33.5 °F 33.8 °F 76% 29.92 in - NW 13.8 mph 20.7 mph N/A   Unknown
12:55 PM 39.2 °F 32.0 °F 33.8 °F 81% 29.92 in 10.0 mi NNW 11.5 mph 19.6 mph N/A   Overcast
1:15 PM 41.0 °F 34.3 °F 33.8 °F 76% 29.91 in 10.0 mi NNW 11.5 mph 17.3 mph N/A   Overcast
1:35 PM 41.0 °F 34.3 °F 32.0 °F 70% 29.91 in 10.0 mi NNW 11.5 mph - N/A   Overcast
1:55 PM 41.0 °F 34.7 °F 32.0 °F 70% 29.91 in 10.0 mi NNW 10.4 mph - N/A   Overcast
2:15 PM 41.0 °F 37.1 °F 32.0 °F 70% 29.90 in 10.0 mi North 5.8 mph - N/A   Overcast
2:35 PM 41.0 °F 36.4 °F 32.0 °F 70% 29.92 in 10.0 mi NNW 6.9 mph - N/A   Overcast
2:56 PM 41.0 °F 35.2 °F 32.0 °F 70% 29.92 in 10.0 mi NW 9.2 mph - N/A   Overcast
3:16 PM 41.0 °F 35.2 °F 30.2 °F 65% 29.92 in 10.0 mi NW 9.2 mph - N/A   Overcast
3:35 PM 41.0 °F 35.2 °F 30.2 °F 65% 29.92 in 10.0 mi WNW 9.2 mph - N/A   Overcast
3:56 PM 41.0 °F 34.3 °F 28.4 °F 61% 29.93 in 10.0 mi NW 11.5 mph - N/A   Overcast
4:15 PM 41.0 °F 35.2 °F 28.4 °F 61% 29.94 in 10.0 mi WNW 9.2 mph - N/A   Overcast
4:35 PM 41.0 °F 34.7 °F 28.4 °F 61% 29.94 in 10.0 mi NW 10.4 mph - N/A   Overcast
4:56 PM 41.0 °F 35.2 °F 26.6 °F 57% 29.95 in 10.0 mi NW 9.2 mph - N/A   Overcast
5:15 PM 39.2 °F 33.6 °F 26.6 °F 61% 29.95 in 10.0 mi NW 8.1 mph - N/A   Scattered Clouds
5:35 PM 37.4 °F 33.8 °F 26.6 °F 65% 29.96 in 10.0 mi WNW 4.6 mph - N/A   Clear
5:55 PM 37.4 °F 34.9 °F 26.6 °F 65% 29.96 in 10.0 mi WNW 3.5 mph - N/A   Clear
6:15 PM 35.6 °F - 26.6 °F 70% 29.97 in 10.0 mi Calm Calm - N/A   Clear
6:35 PM 33.8 °F - 28.4 °F 81% 29.98 in 10.0 mi Calm Calm - N/A   Clear
6:55 PM 33.8 °F - 26.6 °F 75% 29.99 in 10.0 mi Calm Calm - N/A   Clear
7:16 PM 33.8 °F - 28.4 °F 81% 29.99 in 10.0 mi Calm Calm - N/A   Clear
7:35 PM 32.0 °F - 28.4 °F 87% 29.99 in 10.0 mi Calm Calm - N/A   Clear
7:55 PM 32.0 °F - 28.4 °F 87% 30.00 in 10.0 mi Calm Calm - N/A   Clear
8:15 PM 32.0 °F - 28.4 °F 87% 30.00 in 10.0 mi Calm Calm - N/A   Clear
8:36 PM 32.0 °F 27.5 °F 28.4 °F 87% 30.01 in 10.0 mi SW 4.6 mph - N/A   Clear
8:56 PM 30.2 °F 24.3 °F 26.6 °F 86% 30.02 in 10.0 mi WSW 5.8 mph - N/A   Clear
9:15 PM 33.8 °F 30.8 °F 28.4 °F 81% 30.02 in 10.0 mi SW 3.5 mph - N/A   Clear
9:35 PM 32.0 °F 28.7 °F 28.4 °F 87% 30.02 in 10.0 mi SW 3.5 mph - N/A   Clear
9:55 PM 32.0 °F - 28.4 °F 87% 30.02 in 10.0 mi Calm Calm - N/A   Clear
10:15 PM 32.0 °F - 28.4 °F 87% 30.02 in 10.0 mi Calm Calm - N/A   Clear
10:35 PM 32.0 °F 27.5 °F 28.4 °F 87% 30.02 in 10.0 mi South 4.6 mph - N/A   Clear
10:55 PM 30.2 °F 25.4 °F 28.4 °F 93% 30.02 in 10.0 mi SSW 4.6 mph - N/A   Clear
11:15 PM 30.2 °F 26.7 °F 28.4 °F 93% 30.02 in 7.0 mi SSW 3.5 mph - N/A   Clear
11:35 PM 30.2 °F 25.4 °F 28.4 °F 93% 30.01 in 10.0 mi SSW 4.6 mph - N/A   Clear
11:55 PM 30.2 °F 26.7 °F 28.4 °F 93% 30.01 in 7.0 mi South 3.5 mph - N/A   Clear